Location: Quedlinburg
(51.7921°N, 11.1414°E)
Time: 16:01:26
(UTC+02:00)

CUBESAT XI-V - Pass Details

Date: 22 March 2026
Orbit: 643 x 664 km, 98.3° (Epoch: 17 April)

Event Time Altitude Azimuth Distance (km) Brightness Sun altitude
Exits shadow 01:39:31 16° 66° (ENE) 1,718 ? -35.2°
Maximum altitude 01:40:09 16° 55° (NE) 1,695 ? -35.1°
Drops below altitude 10° 01:42:52 10° 18° (NNE) 2,063 ? -35.0°
Sets 01:45:48 0° 357° (N) 2,975 ? -34.8°
